Home   Weather   Zárate   Past weeks

Flag for Argentina Past Weather in Zárate, Buenos Aires, Argentina — Yesterday and Last 2 Weeks

Now
82 °F

Sunny.


Feels Like: 87 °F
Forecast: 71 / 93 °F
Wind: 10 mph from Southeast

Location: Buenos Aires Airport

Current Time: Jan 22, 2017 at 3:11:42 pm

Latest Report: Jan 22, 2017 at 2:00 pm


Visibility: 10 mi

Pressure: 29.98 "Hg

Humidity: 70%

Dew Point: 72 °F

Location of ZárateLocation

Past Weather in Zárate — Graph

°F

Zárate Temperature Yesterday

Maximum temperature yesterday: 88 °F (at 3:00 pm)
Minimum temperature yesterday: 77 °F (at 6:00 am)
Average temperature yesterday: 83 °F

High & Low Weather Summary for the Past Weeks

 TemperatureHumidityPressure
High91 °F (Jan 17, 3:00 pm)94% (Jan 9, 7:00 am)30.12 "Hg (Jan 9, 7:00 am)
Low64 °F (Jan 10, 7:00 am)32% (Jan 14, 5:00 pm)29.53 "Hg (Jan 9, 6:00 pm)
Average78 °F67%29.83 "Hg
* Reported Jan 7 2:00 pm — Jan 22 2:00 pm, Zárate, Weather by CustomWeather, © 2017

Note: Actual official high and low records may vary slightly from our data, if they occured in-between our weather recording intervals... More about our weather records

Advertising

Zárate Weather History for the Previous 24 Hours

Scroll right to see more
 ConditionsComfort  
Time TempWeatherWind HumidityBarometerVisibility
2:00 pm
Sun, Jan 22
82 °FSunny.10 mph70%29.98 "Hg10 mi
1:00 pm82 °FPassing clouds.10 mph70%29.98 "HgN/A
12:00 pm82 °FPassing clouds.8 mph66%29.98 "HgN/A
11:00 am81 °FSunny.8 mph70%30.01 "Hg10 mi
10:00 am81 °FSunny.6 mph70%30.01 "Hg10 mi
9:00 am79 °FPassing clouds.6 mph70%30.01 "HgN/A
8:00 am79 °FSunny.5 mph70%29.98 "Hg10 mi
7:00 am77 °FPassing clouds.8 mph79%29.95 "HgN/A
6:00 am79 °FClear.12 mph74%29.92 "Hg10 mi
5:00 am79 °FClear.9 mph70%29.95 "Hg10 mi
4:00 am79 °FClear.10 mph70%29.92 "Hg10 mi
3:00 am81 °FClear.10 mph66%29.92 "Hg10 mi
2:00 am81 °FClear.14 mph70%29.92 "Hg10 mi
1:00 am82 °FClear.12 mph58%29.95 "Hg10 mi
12:00 am82 °FClear.10 mph58%29.95 "Hg10 mi
11:00 pm
Sat, Jan 21
84 °FClear.12 mph55%29.95 "Hg10 mi
10:00 pm84 °FClear.6 mph79%29.92 "Hg10 mi
9:00 pm84 °FClear.6 mph74%29.92 "Hg10 mi
8:00 pm86 °FSunny.7 mph62%29.92 "Hg10 mi
7:00 pm86 °FSunny.7 mph62%29.92 "Hg10 mi
6:00 pm88 °FSunny.6 mph59%29.92 "Hg10 mi
5:00 pm88 °FSunny.7 mph59%29.95 "Hg10 mi
4:00 pm88 °FPassing clouds.7 mph55%29.95 "HgN/A
3:00 pm88 °FSunny.8 mph59%29.98 "Hg10 mi
Weather by CustomWeather, © 2017

See weather overviewHow to use our weather pages